Regional Weather Roundup
Issued by NWS

Home | Current Version | Previous Version | Text Only | Print | Product List | Glossary Off
Versions: 1 2 3 4 5 6 7 8 9 10 11 12 13 14 15 16 17 18 19 20 21 22 23 24 25 26 27 28 29 30 31 32 33 34 35 36 37 38 39 40 41 42 43 44 45 46 47 48 49 50

672
ASUS43 KLSX 251859
RWRMO

WEATHER SUMMARY FOR MISSOURI
NATIONAL WEATHER SERVICE SPRINGFIELD MO
200 PM CDT TUE APR 25 2017

NOTE: "FAIR" INDICATES FEW OR NO CLOUDS BELOW 12,000 FEET WITH NO
       SIGNIFICANT WEATHER AND/OR OBSTRUCTIONS TO VISIBILITY.
       CURRENT SKY AND/OR WEATHER CONDITIONS ARE NOT AVAILABLE FOR
       CHILLICOTHE AND FARMINGTON.

MOZ001>031-035>038-043-044-053-054-252000-
...NORTHERN AND WESTERN MISSOURI...

CITY           SKY/WX    TMP DP  RH WIND       PRES   REMARKS
KANSAS CTY INT CLOUDY    70  55  59 S9        29.42S
KANSAS C DTWN  CLOUDY    72  54  53 S12       29.41S
LEE`S SUMMIT   CLOUDY    73  54  51 S16       29.43R
ST JOSEPH      CLOUDY    70  54  56 SW12      29.42R
CHILLICOTHE      N/A     76  54  46 S15G23    29.43F
KIRKSVILLE     CLOUDY    75  48  38 S18       29.45F

$$
MOZ066>068-077>081-088>096-101>105-252000-
...SOUTHWEST MISSOURI...

CITY           SKY/WX    TMP DP  RH WIND       PRES   REMARKS
SPRINGFIELD    CLOUDY    79  57  46 S17       29.45F
JOPLIN         SUNNY     78  58  49 S24G32    29.42F
BRANSON        PTSUNNY   77  55  47 S12G20    29.51F

$$
MOZ032>034-039>042-045>050-055>058-069>072-252000-
...CENTRAL MISSOURI...

CITY           SKY/WX    TMP DP  RH WIND       PRES   REMARKS
COLUMBIA       SUNNY     80  52  37 S25G33    29.44F
JEFFERSON CITY SUNNY     82  50  32 S14G25    29.43F
ROLLA          SUNNY     78  50  37 S23G32    29.47F
SEDALIA        MOSUNNY   81  56  42 S16G26    29.43F
OSAGE BEACH    SUNNY     78  54  43 SE12G24   29.46F

$$
MOZ051-052-059>065-252000-
...EAST CENTRAL MISSOURI...

CITY           SKY/WX    TMP DP  RH WIND       PRES   REMARKS
ST LOUIS INTL  PTSUNNY   80  52  37 SE21G30   29.55F
SPIRIT OF STL  MOSUNNY   81  47  30 S15G26    29.52F
ST CHARLES     CLOUDY    80  52  37 SE23G30   29.53F

$$
MOZ072>076-082>087-097>100-106>115-252000-
...SOUTH CENTRAL AND SOUTHEAST MISSOURI...

CITY           SKY/WX    TMP DP  RH WIND       PRES   REMARKS
CAPE GIRARDEAU SUNNY     76  55  48 S13G22    29.65F
FARMINGTON     SUNNY     76  51  41 SE23G30   29.60F
POPLAR BLUFF   SUNNY     75  55  49 S16       29.63F
WEST PLAINS    SUNNY     76  51  41 S16G32    29.57F

$$




USA.gov is the U.S. government's official web portal to all federal, state and local government web resources and services.